Погода в Бузулуке

Погода в Бузулуке : погода сейчас, прогноз погоды и архив. Всё, что Вы хотите узнать о погоде в Бузулуке!

Хотите узнать прогноз погоды в Бузулуке? Тогда Вам сюда: Погода в Бузулуке

Поиск расширенной информации на нашем сайте:

Другие новости

Новости СМИ2

Главная страница сайта

Новости сайта

03.07.2017

Напоминаем, что на нашем специализированном сайте Метеоцентр.Азия вы можете получить высокодетализированные автоматические прогнозы погоды по пунктам России, СНГ и мира в авиационном формате (включающие направление и скорость ветра, видимость, явления погоды, количество и форму облачности, нижнюю и верхнюю границу облачности).


Погода в Бузулуке - сегодня

Время (UTC), дата Ветер
(°,м/с) 
Видим.   Явления Облачность Т
(°С)
Тd
(°С)
f(%) Тe
(°С)
Pmin
(гПа)
dP
(гПа)
Po
(мм)
O2
(г/м3)
Тmin Tmax R s Состояние
почвы
21 21.05.18 030 (СВ) 10 км    ясно 
+10 +4.8 70 +10  1026.4  1.4  762  296           
00 22.05.18 300 (СЗ) 10 км    ясно 
+5.5 +4.3 92 +5  1028  1.3  764  301           
06 22.05.18 050 (СВ) 10 км    ясно 
+17.9 +2.4 35 +18  1030  0.8  765  289           
09 22.05.18 030 (СВ) 10 км    ясно 
+21.5 +3.3 30 +22  1029  -0.8  765  285           
12 22.05.18 060 (СВ) 10 км    ясно 
+23.8 +2 24 +24  1027.5  -1.4  764  283           
15 22.05.18 330 (СЗ) 10 км    ясно 
+22.8 +2.6 27 +23  1027  -0.6  763  283    +24.4       
18 22.05.18 тихо ()   10 км    ясно 
+14.9 +4 48 +15  1027.6  0.4  764  291           
21 22.05.18 290 (З) 10 км    ясно 
+11.5 +5.1 65 +13  1028.1  0.3  764  295           
00 23.05.18 010 (С) 10 км    3/0 верхняя 
[Ci fib]
+8 +5.6 85 +9  1028.6  0.4  764  298           
03 23.05.18 320 (СЗ) 10 км    3/0 верхняя 
[Ci fib]
+14.1 +6.8 61 +15  1028.9  0.5  764  292  +7.6        сухая 
06 23.05.18 220 (ЮЗ) 10 км    ясно 
+23.6 +6 32 +24  1028.6  0.1  764  283           
09 23.05.18 300 (СЗ) 10 км    ясно 
+26.7 +5.5 26 +27  1027.2  -1.2  764  279           
12 23.05.18 210 (ЮЗ) 10 км    3/0 верхняя 
[Ci fib]
+28.2 +4.8 22 +28  1025.4  -1.8  762  278           
18 23.05.18 тихо ()   10 км    6/0 верхняя 
[Ci fib]
+17.8 +7.7 52 +18  1024.1  0.1  761  287           
21 23.05.18 140 (ЮВ) 10 км    3/0 верхняя 
[Ci fib]
+12.8 +11.1 89 +16  1023.2  -1  760  291           
00 24.05.18 140 (ЮВ) 10 км    5/0 верхняя 
[Ci fib]
+13.2 +9.5 78 +14  1022.5  -0.7  760  290           
03 24.05.18 120 (ЮВ) 10 км    8/0 верхняя 
[Ci fib]
+15.5 +9.2 66 +16  1022.1  -0.3  759  288  +12.5        сухая 
06 24.05.18 080 (В) 10 км    8/0 верхняя 
[Ci fib]
+25.3 +10.2 39 +27  1020.9  -0.9  759  278           
09 24.05.18 330 (СЗ) 10 км    8/0 верхняя 
[Ci fib]
+29 +7.5 26 +29  1019.2  -1.6  758  275           
12 24.05.18 050 (СВ) 10 км    5/0 средняя, верхняя 
[Ac lent|Ci fib]
+30 +6.9 23 +30  1017.7  -1.5  756  274           
18 24.05.18 080 (В) 10 км    8/0 средняя 
[Ac trans]
+21.9 +8.2 41 +22  1014.5  -1.1  754  280           
21 24.05.18 050 (СВ) 10 км    4/0 средняя 
[Ac trans]
+17 +9.5 61 +18  1013  -1.6  753  284           
00 25.05.18 360 (С) 10 км    8/4 300 м средняя 
[Ac trans]
+18.7 +9.9 57 +20  1013.1  0.2  753  282           
03 25.05.18 040 (СВ) 10 км    9/4 300 м средняя, верхняя 
[Sc|Ac trans|Ci fib]
+19.9 +10.1 53 +22  1012.5  -0.5  752  281  +16.4        сухая 
06 25.05.18 040 (СВ) 5{11}  10 км    9/4 600 м средняя, верхняя 
[Sc diur, vesp|Ac trans|Ci sp]
+19.4 +10.2 55 +21  1012.5  752  281           
Время (UTC), дата Ветер
(°,м/с) 
Видим.   Явления Облачность Т
(°С)
Тd
(°С)
f(%) Тe
(°С)
Pmin
(гПа)
dP
(гПа)
Po
(мм)
O2
(г/м3)
Тmin Tmax R s Состояние
почвы

Для получения пояснительной информации подведите курсор к названию столбца.

ПОГОДА в Бузулуке - архив

Всё, что Вы хотите узнать о погоде в Бузулуке - удобно и подробно!

Выберите нужную дату (начиная с 1 января 2015* года) и нажмите кнопку "Найти".
Будут отображены архивные сводки погоды по пункту Бузулук, начиная с указанной даты.


Отображать данные в формате CSV (для использования в таблицах Excel)


Внимание! Наш архив погоды предназначен исключительно для личного некоммерческого использования в познавательных целях. Если Вам необходимы официальные справки о состоянии погоды (для производственных, юридических, коммерческих и т.п. целей), обращайтесь в органы Росгидромета.

*Примечание: данная дата относится к архиву по метеостанциям СССР (Россия, СНГ, Балтия).
Архив по метеостанциям Зарубежной Европы и Азии (кроме Китая) хранится 10 дней, по другим регионам земного шара (Китай, Африка, Америка, Австралия, Океания) - 1 день.

Бузулук - район местоположения метеостанции


Название, широта, долгота, высота метеостанции:
Бузулук 52.8°ш. 52.2°д. 80 м над ур. моря [Российская Федерация]

Дополнительная информация

В oтличие oт бoльшинства пoгoдных сайтoв мы публикуем пoдрoбную метеoинфoрмацию в детальнoм прoфессиoнальнoм фoрмате.

Характеристики температуры и влажнoсти вoздуха измеряются на высoте 2 м в тени вдали oт зданий и деревьев.
Скoрoсть ветра измеряется на высoте 10 м (на урoвне рoста челoвека скoрoсть ветра ниже в 1.5-2 раза). Если метеoстанция нахoдится в гoрoде или в лесу, тo скoрoсть ветра занижена на 2-4 м/с пo сравнению с oткрытым местoм. Скoрoсть ветра над акватoриями крупных рек и oзёр, а также на вершинах хoлмoв на 2-5 м/с выше, чем в oбычных услoвиях.
Атмoсфернoе давление в разных тoчках местнoсти мoжет значительнo oтличаться oт давления на метеoстанции, в зависимoсти oт услoвий рельефа (при пoдъёме на 10 м давление пoнижается примернo на 1 мм рт.ст.).